�N����,����,�~����,�C��,���x,�C��,����,���ϕ���,�ő�u�ԕ���,�ő厞����,���˗�,�I�_���x,�n�����x,�ő啗���N��,DTYPE
"18/11/16","00:10",0.0,8.5,91.5,1018.7,309.0,1.3,2.1,313.8,0.00,7.2,13.1,"00:05:12",1
"18/11/16","00:20",0.0,8.1,92.6,1019.0,292.7,1.3,1.9,313.6,0.00,7.0,12.8,"00:10:24",1
"18/11/16","00:30",0.0,8.0,93.5,1019.2,300.0,1.2,2.4,319.2,0.00,7.1,12.9,"00:28:24",1
"18/11/16","00:40",0.0,8.2,93.2,1019.0,345.4,0.7,2.0,312.2,0.00,7.2,12.8,"00:33:04",1
"18/11/16","00:50",0.0,7.6,92.4,1019.0,292.2,0.8,1.4,280.5,0.00,6.5,12.9,"00:46:08",1
"18/11/16","01:00",0.0,7.2,93.9,1019.0,287.9,1.2,1.9,294.1,0.00,6.3,12.7,"00:58:24",1
"18/11/16","01:10",0.0,7.4,94.6,1019.2,309.9,1.6,2.4,343.8,0.00,6.6,12.8,"01:03:36",1
"18/11/16","01:20",0.0,7.3,95.2,1018.5,303.6,1.8,2.8,312.2,0.00,6.6,12.6,"01:16:16",1
"18/11/16","01:30",0.0,7.8,95.3,1018.0,308.9,2.1,3.9,309.3,0.00,7.1,12.5,"01:23:52",1
"18/11/16","01:40",0.0,7.6,95.3,1018.5,303.8,1.6,2.5,302.2,0.00,6.9,12.6,"01:38:08",1
"18/11/16","01:50",0.0,7.8,95.5,1018.5,319.2,2.3,4.8,326.1,0.00,7.2,12.4,"01:48:00",1
"18/11/16","02:00",0.0,8.1,95.4,1018.7,314.5,3.0,5.0,329.6,0.00,7.4,12.6,"01:54:40",1
"18/11/16","02:10",0.0,8.2,95.4,1018.5,319.1,3.1,4.9,327.5,0.00,7.5,12.5,"02:09:04",1
"18/11/16","02:20",0.0,8.3,95.5,1018.7,328.0,3.4,5.9,337.7,0.00,7.7,12.4,"02:17:04",1
"18/11/16","02:30",0.0,8.2,95.6,1018.0,325.7,2.8,4.5,322.7,0.00,7.6,12.4,"02:24:00",1
"18/11/16","02:40",0.0,8.3,95.8,1018.5,320.1,3.4,4.9,322.1,0.00,7.7,12.4,"02:39:36",1
"18/11/16","02:50",0.0,8.2,95.6,1018.5,306.0,2.8,5.0,331.9,0.00,7.6,12.4,"02:42:40",1
"18/11/16","03:00",0.0,7.9,95.7,1018.0,295.0,2.0,3.5,331.6,0.00,7.3,12.2,"02:51:04",1
"18/11/16","03:10",0.0,7.5,95.6,1018.0,326.5,2.3,4.3,317.4,0.00,6.9,12.2,"03:00:48",1
"18/11/16","03:20",0.0,6.9,95.4,1018.2,309.8,1.6,2.5,325.8,0.00,6.3,12.3,"03:10:24",1
"18/11/16","03:30",0.0,6.7,96.5,1018.2,312.5,2.0,2.8,318.9,0.00,6.2,12.2,"03:25:04",1
"18/11/16","03:40",0.0,6.2,96.6,1018.2,305.4,1.6,2.1,316.5,0.00,5.7,12.1,"03:35:12",1
"18/11/16","03:50",0.0,5.9,97.2,1018.0,303.7,1.6,3.1,320.7,0.00,5.5,12.1,"03:49:28",1
"18/11/16","04:00",0.0,6.6,97.4,1018.0,308.7,2.3,3.7,320.9,0.00,6.3,12.0,"03:51:44",1
"18/11/16","04:10",0.0,6.6,97.3,1017.5,295.5,1.8,2.9,311.9,0.00,6.2,12.0,"04:06:08",1
"18/11/16","04:20",0.0,6.9,97.4,1018.0,302.1,2.6,4.8,325.5,0.00,6.6,11.9,"04:14:16",1
"18/11/16","04:30",0.0,7.2,97.2,1017.5,312.7,3.0,5.1,338.8,0.00,6.8,11.8,"04:27:04",1
"18/11/16","04:40",0.0,7.0,97.0,1017.5,305.4,2.1,3.4,325.7,0.00,6.6,11.9,"04:33:20",1
"18/11/16","04:50",0.0,6.9,96.9,1017.8,308.5,2.3,3.6,316.4,0.00,6.5,12.0,"04:46:24",1
"18/11/16","05:00",0.0,6.0,96.9,1018.0,320.3,1.7,2.5,342.5,0.00,5.6,11.8,"04:53:20",1
"18/11/16","05:10",0.0,5.7,98.2,1017.8,291.5,1.3,1.8,282.0,0.00,5.5,11.8,"05:09:52",1
"18/11/16","05:20",0.0,6.2,97.6,1017.8,292.0,1.7,2.0,301.3,0.00,5.9,11.6,"05:11:36",1
"18/11/16","05:30",0.0,6.1,98.2,1017.8,291.4,1.7,2.5,293.2,0.00,5.9,11.6,"05:29:44",1
"18/11/16","05:40",0.0,6.2,97.5,1017.8,297.8,1.7,2.7,314.6,0.00,5.9,11.7,"05:36:56",1
"18/11/16","05:50",0.0,6.1,97.7,1017.8,309.9,2.0,2.8,326.2,0.00,5.8,11.7,"05:43:04",1
"18/11/16","06:00",0.0,6.3,98.4,1017.3,296.9,1.7,2.6,267.4,0.00,6.1,11.6,"05:55:20",1
"18/11/16","06:10",0.0,6.2,97.0,1017.3,320.6,1.8,3.2,333.8,0.00,5.8,11.6,"06:05:36",1
"18/11/16","06:20",0.0,5.4,97.4,1017.5,313.8,1.6,2.4,314.8,0.00,5.1,11.6,"06:17:52",1
"18/11/16","06:30",0.0,4.9,98.0,1017.3,307.9,1.6,2.5,315.4,0.00,4.7,11.3,"06:20:16",1
"18/11/16","06:40",0.0,5.0,98.1,1017.8,321.6,1.8,2.8,327.7,0.00,4.8,11.6,"06:37:20",1
"18/11/16","06:50",0.0,5.3,98.4,1017.3,318.3,1.6,2.1,341.8,0.00,5.1,11.2,"06:48:08",1
"18/11/16","07:00",0.0,5.2,98.3,1017.1,299.5,1.2,1.6,313.0,0.00,5.0,11.3,"06:58:40",1
"18/11/16","07:10",0.0,5.4,97.4,1017.5,326.9,1.1,1.8,315.8,0.00,5.1,11.2,"07:08:16",1
"18/11/16","07:20",0.0,5.8,98.9,1017.3,316.1,2.0,3.2,321.5,0.00,5.7,11.1,"07:13:20",1
"18/11/16","07:30",0.0,5.8,98.9,1017.3,285.0,0.8,1.3,278.2,0.00,5.7,11.4,"07:25:30",1
"18/11/16","07:40",0.0,6.1,98.4,1017.5,312.4,1.0,1.9,320.9,0.00,5.9,11.3,"07:34:40",1
"18/11/16","07:50",0.0,7.2,98.3,1017.8,328.9,1.3,1.8,325.2,0.01,7.0,11.3,"07:41:12",1
"18/11/16","08:00",0.0,7.9,97.6,1017.5,327.5,0.8,1.7,316.4,0.02,7.6,11.5,"07:50:48",1
"18/11/16","08:10",0.0,8.7,96.6,1018.2,307.8,1.0,1.7,320.1,0.03,8.2,11.4,"08:05:28",1
"18/11/16","08:20",0.0,9.1,96.3,1018.2,287.8,0.6,1.2,292.0,0.04,8.6,11.4,"08:10:08",1
"18/11/16","08:30",0.0,9.0,94.9,1018.2,190.0,0.3,0.8,295.4,0.04,8.3,11.6,"08:21:12",1
"18/11/16","08:40",0.0,9.7,93.8,1018.7,283.2,0.8,2.2,331.1,0.07,8.8,11.5,"08:39:20",1
"18/11/16","08:50",0.0,10.2,91.3,1019.0,342.6,0.6,1.3,327.9,0.12,8.9,11.8,"08:40:08",1
"18/11/16","09:00",0.0,11.2,89.6,1019.0,290.7,1.0,2.7,267.1,0.16,9.6,12.0,"08:58:48",1
"18/11/16","09:10",0.0,11.7,86.7,1019.2,293.6,1.2,2.2,299.1,0.20,9.6,12.2,"09:03:44",1
"18/11/16","09:20",0.0,11.9,86.7,1018.7,239.7,0.6,2.2,320.4,0.25,9.8,12.2,"09:10:08",1
"18/11/16","09:30",0.0,11.8,84.2,1019.0,242.9,0.6,1.4,269.9,0.23,9.3,12.3,"09:26:08",1
"18/11/16","09:40",0.0,12.4,81.9,1018.5,267.3,0.6,1.1,271.9,0.23,9.4,12.7,"09:32:08",1
"18/11/16","09:50",0.0,12.7,79.6,1018.2,220.3,0.3,1.1,172.4,0.25,9.3,12.8,"09:48:16",1
"18/11/16","10:00",0.0,12.9,78.7,1018.0,248.0,0.7,1.3,303.9,0.21,9.3,13.0,"09:54:08",1
"18/11/16","10:10",0.0,12.9,77.0,1018.5,251.3,1.0,2.1,233.5,0.27,9.0,13.3,"10:08:40",1
"18/11/16","10:20",0.0,13.2,76.1,1018.5,206.1,0.8,1.9,235.2,0.29,9.1,13.5,"10:14:56",1
"18/11/16","10:30",0.0,14.0,75.0,1019.0,333.3,0.7,1.9,318.7,0.26,9.7,13.7,"10:22:32",1
"18/11/16","10:40",0.0,14.5,73.5,1018.5,335.9,0.6,1.4,295.6,0.31,9.9,13.7,"10:39:04",1
"18/11/16","10:50",0.0,14.1,72.8,1018.7,259.9,0.7,1.6,242.5,0.19,9.3,14.0,"10:46:24",1
"18/11/16","11:00",0.0,14.8,71.5,1018.0,293.7,0.6,1.3,344.0,0.34,9.7,14.0,"10:52:56",1
"18/11/16","11:10",0.0,15.0,69.2,1018.0,230.5,1.1,1.6,226.4,0.42,9.4,14.6,"11:04:16",1
"18/11/16","11:20",0.0,15.2,66.9,1017.5,239.9,1.0,2.5,235.2,0.42,9.1,14.7,"11:11:12",1
"18/11/16","11:30",0.0,16.3,64.2,1017.1,302.8,0.8,1.9,335.0,0.46,9.6,14.9,"11:23:28",1
"18/11/16","11:40",0.0,16.0,63.1,1016.8,191.4,1.1,2.7,233.4,0.41,9.0,15.0,"11:34:40",1
"18/11/16","11:50",0.0,16.0,61.7,1016.8,219.9,1.5,2.9,208.3,0.38,8.7,15.2,"11:40:48",1
"18/11/16","12:00",0.0,16.3,61.3,1016.6,236.3,1.0,2.1,238.6,0.34,8.9,15.4,"11:51:52",1
"18/11/16","12:10",0.0,16.2,60.5,1016.1,134.1,1.0,2.0,116.5,0.33,8.6,15.5,"12:00:40",1
"18/11/16","12:20",0.0,16.9,57.3,1015.9,199.6,0.6,1.4,101.5,0.38,8.5,16.0,"12:14:24",1
"18/11/16","12:30",0.0,17.4,57.7,1015.6,192.2,1.2,3.2,193.7,0.35,9.0,15.9,"12:23:04",1
"18/11/16","12:40",0.0,16.8,58.6,1015.6,146.1,1.2,2.6,108.0,0.27,8.7,16.2,"12:33:44",1
"18/11/16","12:50",0.0,17.0,57.3,1015.2,168.8,0.8,2.6,143.2,0.20,8.5,16.2,"12:47:36",1
"18/11/16","13:00",0.0,16.8,57.6,1014.9,179.1,1.1,3.3,203.5,0.21,8.4,16.3,"12:50:32",1
"18/11/16","13:10",0.0,16.9,57.9,1014.7,204.4,1.7,3.7,232.9,0.19,8.6,16.2,"13:04:24",1
"18/11/16","13:20",0.0,17.2,57.4,1014.9,196.7,0.6,1.8,99.5,0.20,8.8,16.4,"13:14:00",1
"18/11/16","13:30",0.0,17.2,57.6,1014.5,204.0,1.1,3.1,196.7,0.20,8.8,16.6,"13:25:28",1
"18/11/16","13:40",0.0,17.2,58.9,1014.5,168.2,1.2,2.4,205.4,0.16,9.1,16.6,"13:38:16",1
"18/11/16","13:50",0.0,17.2,58.1,1014.5,213.1,0.7,1.9,221.4,0.14,8.9,16.4,"13:45:12",1
"18/11/16","14:00",0.0,17.2,58.4,1014.5,184.4,1.2,2.4,216.9,0.12,9.0,16.4,"13:50:48",1
"18/11/16","14:10",0.0,17.2,58.6,1014.5,183.8,1.2,3.1,146.2,0.11,9.1,16.3,"14:09:20",1
"18/11/16","14:20",0.0,17.2,58.3,1014.0,202.3,1.8,3.9,207.8,0.09,9.0,16.3,"14:12:08",1
"18/11/16","14:30",0.0,17.2,59.3,1014.2,200.3,1.2,2.4,233.2,0.10,9.2,16.2,"14:22:24",1
"18/11/16","14:40",0.0,17.5,58.2,1014.0,235.9,1.6,3.3,211.9,0.15,9.2,16.3,"14:30:24",1
"18/11/16","14:50",0.0,17.4,58.3,1013.8,225.6,0.8,3.3,229.3,0.13,9.2,16.1,"14:48:40",1
"18/11/16","15:00",0.0,17.4,58.2,1013.8,209.3,1.3,3.5,218.8,0.12,9.2,16.5,"14:55:28",1
"18/11/16","15:10",0.0,17.2,60.3,1014.0,200.3,1.1,2.4,207.6,0.10,9.5,16.2,"15:00:40",1
"18/11/16","15:20",0.0,17.4,57.8,1013.8,238.3,1.5,3.7,234.1,0.11,9.0,16.2,"15:13:36",1
"18/11/16","15:30",0.0,17.7,58.6,1014.0,244.9,0.8,2.1,221.2,0.08,9.5,16.3,"15:29:04",1
"18/11/16","15:40",0.0,17.4,60.3,1013.8,212.3,1.1,2.6,207.4,0.06,9.7,16.3,"15:33:36",1
"18/11/16","15:50",0.0,17.3,60.7,1014.2,190.7,1.7,3.2,195.4,0.06,9.7,16.1,"15:48:40",1
"18/11/16","16:00",0.0,17.2,62.4,1014.0,202.4,1.0,2.6,211.7,0.05,10.0,16.2,"15:59:28",1
"18/11/16","16:10",0.0,17.0,62.4,1014.2,220.9,1.5,3.2,229.2,0.04,9.8,16.2,"16:09:12",1
"18/11/16","16:20",0.0,16.9,62.6,1013.8,231.7,1.6,3.5,230.1,0.03,9.8,15.8,"16:19:28",1
"18/11/16","16:30",0.0,16.5,63.3,1013.5,228.3,1.1,3.6,206.0,0.01,9.6,15.8,"16:20:40",1
"18/11/16","16:40",0.0,16.1,65.1,1013.5,250.3,0.6,1.6,330.0,0.00,9.6,16.0,"16:30:02",1
"18/11/16","16:50",0.0,15.7,69.6,1013.5,318.3,1.2,2.0,320.6,0.00,10.2,15.8,"16:49:12",1
"18/11/16","17:00",0.0,15.2,72.4,1013.8,317.7,1.5,2.5,321.7,0.00,10.3,15.7,"16:52:24",1
"18/11/16","17:10",0.0,14.7,74.2,1013.5,315.1,1.0,1.8,326.9,0.00,10.2,15.8,"17:02:24",1
"18/11/16","17:20",0.0,14.2,76.4,1013.8,279.7,1.1,1.7,263.5,0.00,10.2,15.7,"17:17:04",1
"18/11/16","17:30",0.0,13.9,78.1,1013.8,308.9,1.3,2.1,315.5,0.00,10.2,15.6,"17:27:12",1
"18/11/16","17:40",0.0,13.7,78.5,1013.5,309.1,1.3,2.6,331.7,0.00,10.1,15.2,"17:33:36",1
"18/11/16","17:50",0.0,13.4,80.0,1013.8,285.1,1.0,1.2,324.4,0.00,10.1,15.5,"17:42:48",1
"18/11/16","18:00",0.0,13.1,81.5,1014.5,285.9,1.1,1.4,297.6,0.00,10.0,15.2,"17:56:00",1
"18/11/16","18:10",0.0,13.3,81.8,1014.2,303.0,1.6,2.7,337.4,0.00,10.3,15.2,"18:08:16",1
"18/11/16","18:20",0.0,13.3,80.9,1014.2,299.6,1.7,2.5,323.5,0.00,10.1,15.2,"18:10:16",1
"18/11/16","18:30",0.0,13.1,81.3,1014.0,299.4,1.2,1.9,322.9,0.00,10.0,15.0,"18:28:56",1
"18/11/16","18:40",0.0,13.0,81.0,1013.8,323.9,1.7,2.6,344.2,0.00,9.9,15.2,"18:32:56",1
"18/11/16","18:50",0.0,12.8,81.6,1014.0,294.0,1.1,2.2,328.8,0.00,9.8,14.8,"18:47:50",1
"18/11/16","19:00",0.0,12.7,81.4,1013.8,291.0,1.1,2.5,326.7,0.00,9.6,15.0,"18:51:46",1
"18/11/16","19:10",0.0,12.5,82.1,1014.2,295.4,1.5,1.9,322.7,0.00,9.6,14.8,"19:05:00",1
"18/11/16","19:20",0.0,12.5,82.0,1014.2,312.0,1.6,3.3,329.4,0.00,9.6,14.7,"19:14:24",1
"18/11/16","19:30",0.0,12.4,81.5,1014.0,304.5,1.3,2.7,329.6,0.00,9.4,14.9,"19:21:34",1
"18/11/16","19:40",0.0,12.2,81.3,1014.0,310.5,1.0,1.3,287.0,0.00,9.1,14.7,"19:38:00",1
"18/11/16","19:50",0.0,11.8,82.8,1014.0,306.6,1.6,2.1,316.6,0.00,9.0,14.7,"19:49:28",1
"18/11/16","20:00",0.0,12.0,82.9,1014.0,314.7,2.1,3.2,330.6,0.00,9.2,14.5,"19:54:56",1
"18/11/16","20:10",0.0,12.0,82.7,1014.5,318.6,2.1,3.2,322.5,0.00,9.2,14.6,"20:07:44",1
"18/11/16","20:20",0.0,12.1,81.8,1014.0,329.1,2.1,2.9,328.9,0.00,9.1,14.7,"20:14:02",1
"18/11/16","20:30",0.0,11.8,81.4,1014.2,319.5,0.8,2.4,310.6,0.00,8.8,14.4,"20:20:18",1
"18/11/16","20:40",0.0,11.6,82.4,1014.2,298.0,1.6,1.8,313.6,0.00,8.7,14.3,"20:34:58",1
"18/11/16","20:50",0.0,11.4,83.5,1014.2,283.5,1.3,1.6,252.6,0.00,8.7,14.3,"20:47:26",1
"18/11/16","21:00",0.0,11.3,84.1,1014.0,314.9,0.8,1.4,316.8,0.00,8.8,14.4,"20:50:16",1
"18/11/16","21:10",0.0,11.3,84.0,1013.8,316.2,1.5,2.1,311.5,0.00,8.7,14.1,"21:06:50",1
"18/11/16","21:20",0.0,11.1,84.9,1014.0,299.1,1.3,1.8,314.2,0.00,8.7,14.2,"21:14:26",1
"18/11/16","21:30",0.0,11.1,84.7,1013.8,295.8,1.2,2.1,321.0,0.00,8.7,14.3,"21:22:06",1
"18/11/16","21:40",0.0,11.1,85.4,1014.0,307.0,1.5,2.4,338.3,0.00,8.8,14.0,"21:39:10",1
"18/11/16","21:50",0.0,11.1,85.5,1013.8,323.6,1.1,1.9,315.4,0.00,8.8,14.1,"21:41:10",1
"18/11/16","22:00",0.0,11.0,85.9,1013.8,311.8,1.7,2.1,325.3,0.00,8.8,14.1,"21:54:34",1
"18/11/16","22:10",0.0,10.8,86.6,1013.3,311.8,1.3,2.0,315.8,0.00,8.7,13.9,"22:03:34",1
"18/11/16","22:20",0.0,10.8,87.3,1013.5,325.4,1.5,2.0,321.1,0.00,8.8,14.2,"22:12:42",1
"18/11/16","22:30",0.0,10.8,87.0,1013.5,321.8,1.7,2.1,319.0,0.00,8.8,13.9,"22:21:58",1
"18/11/16","22:40",0.0,10.7,87.3,1013.8,327.2,1.0,1.8,312.9,0.00,8.7,14.0,"22:37:24",1
"18/11/16","22:50",0.0,10.6,88.1,1013.3,292.5,1.5,1.9,305.5,0.00,8.8,13.8,"22:40:08",1
"18/11/16","23:00",0.0,10.7,87.4,1013.5,292.0,1.5,1.8,319.2,0.00,8.7,13.9,"22:56:56",1
"18/11/16","23:10",0.0,10.8,87.2,1013.8,303.7,1.5,1.9,309.7,0.00,8.8,13.7,"23:06:56",1
"18/11/16","23:20",0.0,11.0,86.2,1013.3,297.0,1.5,1.9,324.9,0.00,8.8,13.9,"23:12:36",1
"18/11/16","23:30",0.0,11.1,84.8,1013.5,313.7,1.5,2.0,319.4,0.00,8.7,13.8,"23:29:12",1
"18/11/16","23:40",0.0,11.1,83.8,1013.0,323.2,1.6,2.0,326.5,0.00,8.5,13.8,"23:34:24",1
"18/11/16","23:50",0.0,10.7,85.1,1013.3,307.3,1.5,1.9,319.2,0.00,8.3,13.8,"23:43:22",1
"18/11/16","24:00",0.0,10.5,86.7,1013.0,283.5,1.3,1.9,318.6,0.00,8.4,13.9,"23:59:50",1
